Location: Ferintosh
(52.7647°N, 112.9692°W)
Time: 15:28:37
(UTC+00:00)

Transit 2A Rocket - Pass Details

Date: 23 May 2024
Orbit: 583 x 910 km, 66.7° (Epoch: 22 June)

Event Time Altitude Azimuth Distance (km) Brightness Sun altitude
Rises 12:47:40 0° 244° (WSW) 3,052 7.4 10.4°
Reaches altitude 10° 12:50:01 10° 252° (WSW) 2,189 6.8 10.8°
Maximum altitude 12:54:47 42° 323° (NW) 1,076 5.8 11.4°
Drops below altitude 10° 13:00:02 10° 34° (NE) 2,411 8.6 12.2°
Sets 13:02:43 0° 42° (NE) 3,397 9.5 12.6°
